Buffalo, NY

3:48 AM EST on January 18, 2018 (GMT -0500)
Buffalo Niagara International

Weather History for KBUF - February, 2014

Change the Weather History Date:

Wednesday, February 19, 2014

  Actual Average Record
Temperature  
Mean Temperature 36 °F 27 °F  
Max Temperature 46 °F 34 °F 63 °F (1994)
Min Temperature 26 °F 20 °F -6 °F (2015)
Degree Days  
Heating Degree Days 29 38  
Month to date heating degree days 885 750  
Since 1 July heating degree days 4732 4409  
Cooling Degree Days 0 0  
Month to date cooling degree days 0 0  
Year to date cooling degree days 0 0  
Moisture  
Dew Point 28 °F    
Average Humidity 65    
Maximum Humidity 92    
Minimum Humidity 37    
Precipitation  
Precipitation 0.03 in 0.09 in 1.37 in (1960)
Month to date precipitation 1.64 1.66  
Year to date precipitation 4.80 4.84  
Snow  
Snow T in 0.60 in 13.00 in (1960)
Month to date snowfall 16.6 12.1  
Since 1 July snowfall 97.5 73.6  
Snow Depth 8.00 in    
Sea Level Pressure  
Sea Level Pressure 29.79 in    
Wind  
Wind Speed 14 mph (SW)    
Max Wind Speed 24 mph    
Max Gust Speed 32 mph    
Visibility 8 miles    
Events Rain , Snow    
T = Trace of Precipitation, MM = Missing Value Source: NWS Daily Summary

Daily Weather History Graph

Daily Weather History Graph

Search for Another Location

Airport or City:

Trip Planner

Search our weather history database for the weather conditions in past years. The results will help you decide how hot, cold, wet, or windy it might be!

Date:

Astronomy

Feb. 19, 2014 Rise Set
Actual Time 7:06 AM EST 5:51 PM EST
Civil Twilight 6:37 AM EST 6:20 PM EST
Nautical Twilight 6:04 AM EST 6:53 PM EST
Astronomical Twilight 5:31 AM EST 7:26 PM EST
Moon 10:51 PM EST (2/19) 9:03 AM EST (2/19)
Length of Visible Light 11h 42m
Length of Day
10h 45m
Waning Gibbous, 80% of the Moon is Illuminated
Feb 19
Waning Gibbous
Feb 22
Last Quarter
Mar 1
New
Mar 8
First Quarter
Mar 16
Full

Hourly Weather History & Observations

Time (EST) Temp. Windchill Dew Point Humidity Pressure Visibility Wind Dir Wind Speed Gust Speed Precip Events Conditions
12:54 AM 30.9 °F 22.2 °F 21.0 °F 67% 29.85 in 10.0 mi SE 10.4 mph - N/A   Mostly Cloudy
1:54 AM 33.1 °F 24.4 °F 21.9 °F 64% 29.79 in 10.0 mi SE 11.5 mph - N/A   Overcast
2:54 AM 33.1 °F 26.1 °F 21.9 °F 64% 29.75 in 10.0 mi SE 8.1 mph - N/A   Mostly Cloudy
3:54 AM 39.0 °F 32.8 °F 21.9 °F 50% 29.70 in 10.0 mi South 9.2 mph - N/A   Mostly Cloudy
4:54 AM 43.0 °F 36.0 °F 23.0 °F 45% 29.66 in 10.0 mi South 13.8 mph - N/A   Overcast
5:54 AM 42.1 °F 35.7 °F 24.1 °F 49% 29.63 in 10.0 mi South 11.5 mph - N/A   Mostly Cloudy
6:54 AM 42.1 °F 34.9 °F 24.1 °F 49% 29.61 in 10.0 mi South 13.8 mph - N/A   Mostly Cloudy
7:54 AM 42.1 °F 35.7 °F 24.1 °F 49% 29.62 in 10.0 mi SSW 11.5 mph - N/A   Mostly Cloudy
8:54 AM 44.1 °F 37.7 °F 25.0 °F 47% 29.63 in 10.0 mi SSW 12.7 mph - N/A   Scattered Clouds
9:54 AM 44.1 °F 37.4 °F 27.0 °F 51% 29.60 in 10.0 mi SSW 13.8 mph - N/A   Scattered Clouds
10:54 AM 44.1 °F 37.1 °F 28.4 °F 54% 29.63 in 10.0 mi WSW 15.0 mph - N/A   Mostly Cloudy
11:40 AM 42.8 °F 34.8 °F 28.4 °F 57% 29.61 in 10.0 mi WSW 17.3 mph 23.0 mph N/A   Mostly Cloudy
11:54 AM 44.1 °F 37.4 °F 28.9 °F 55% 29.63 in 10.0 mi WSW 13.8 mph - N/A   Mostly Cloudy
12:54 PM 43.0 °F 35.1 °F 28.9 °F 58% 29.62 in 10.0 mi West 17.3 mph 21.9 mph N/A   Mostly Cloudy
1:54 PM 42.1 °F 35.7 °F 30.0 °F 62% 29.65 in 10.0 mi SW 11.5 mph - N/A   Mostly Cloudy
2:54 PM 37.0 °F 28.5 °F 30.9 °F 79% 29.69 in 10.0 mi SW 13.8 mph - N/A   Mostly Cloudy
3:54 PM 35.1 °F 25.5 °F 30.0 °F 82% 29.75 in 10.0 mi WSW 15.0 mph 23.0 mph N/A   Overcast
4:08 PM 35.6 °F 27.1 °F 30.2 °F 81% 29.75 in 7.0 mi WSW 12.7 mph 20.7 mph 0.00 in Snow Light Snow
4:26 PM 35.6 °F 27.1 °F 32.0 °F 87% 29.77 in 1.5 mi West 12.7 mph - 0.01 in Snow Light Snow
4:36 PM 35.6 °F 28.0 °F 32.0 °F 87% 29.78 in 2.5 mi WSW 10.4 mph - 0.02 in Rain , Snow Light Rain
4:54 PM 34.0 °F 25.0 °F 32.0 °F 92% 29.82 in 2.0 mi WSW 12.7 mph - 0.03 in Rain , Snow Light Rain
5:54 PM 34.0 °F 23.8 °F 30.9 °F 89% 29.89 in 2.5 mi WSW 16.1 mph 26.5 mph 0.00 in   Overcast
6:16 PM 33.8 °F 22.2 °F 30.2 °F 87% 29.89 in 5.0 mi WSW 20.7 mph 28.8 mph N/A   Overcast
6:54 PM 33.1 °F 20.6 °F 30.0 °F 89% 29.96 in 5.0 mi SW 23.0 mph 28.8 mph 0.00 in   Overcast
7:54 PM 32.0 °F 20.8 °F 28.9 °F 88% 30.02 in 5.0 mi WSW 17.3 mph 27.6 mph 0.00 in   Overcast
8:54 PM 32.0 °F 20.8 °F 30.0 °F 92% 30.05 in 4.0 mi SW 17.3 mph 26.5 mph N/A   Overcast
9:54 PM 32.0 °F 23.0 °F 30.0 °F 92% 30.08 in 5.0 mi SW 11.5 mph - N/A   Partly Cloudy
10:15 PM 32.0 °F 22.1 °F 30.2 °F 93% 30.06 in 5.0 mi SW 13.8 mph - N/A   Mostly Cloudy
10:54 PM 30.9 °F 22.8 °F 28.9 °F 92% 30.08 in 5.0 mi SW 9.2 mph - N/A   Scattered Clouds
11:54 PM 32.0 °F 22.1 °F 28.9 °F 88% 30.09 in 6.0 mi SW 13.8 mph - N/A   Scattered Clouds